When you browse on this site, cookies collect data to enhance your experience and personalize the content and advertising you see.
Visit our Privacy Policy to learn more. By continuing to use the site, you agree to this use of cookies and data.
  • In Romania
  • List of Countries
  • For 7 days
  • Water Temperature
  • Weather Map
  • Weather Widgets
  • user-avatar
    Login

    Hourly Weather Gloucester

    Today, 2 June, Tuesday

    Time Temperature Precipitation Wind Pressure Humidity
    00:00 +12°C° 0 mm 2 mps 761 mmHg 92%
    01:00 +12°C° 0 mm 2 mps 761 mmHg 91%
    02:00 +10°C° 0 mm 2 mps 761 mmHg 90%
    03:00 +9°C° 0 mm 2 mps 761 mmHg 90%
    04:00 +10°C° 0 mm 2 mps 760 mmHg 88%
    05:00 +10°C° 0 mm 2 mps 760 mmHg 85%
    06:00 +12°C° 0 mm 1 mps 760 mmHg 85%
    07:00 +14°C° 0 mm 2 mps 760 mmHg 79%
    08:00 +16°C° 0 mm 2 mps 760 mmHg 73%
    09:00 +17°C° 0 mm 2 mps 760 mmHg 66%
    10:00 +18°C° 0 mm 2 mps 759 mmHg 65%
    11:00 +19°C° 0 mm 2 mps 759 mmHg 64%
    12:00 +21°C° 0 mm 2 mps 759 mmHg 63%
    13:00 +21°C° 0 mm 2 mps 758 mmHg 62%
    14:00 +21°C° 0 mm 2 mps 758 mmHg 61%
    15:00 +23°C° 0 mm 2 mps 757 mmHg 60%
    16:00 +23°C° 0.1 mm 2 mps 757 mmHg 65%
    17:00 +21°C° 0.1 mm 2 mps 756 mmHg 69%
    18:00 +22°C° 0.1 mm 1 mps 756 mmHg 74%
    19:00 +20°C° 0.1 mm 1 mps 756 mmHg 77%
    20:00 +19°C° 0.1 mm 1 mps 755 mmHg 80%
    21:00 +16°C° 0.1 mm 1 mps 755 mmHg 83%
    22:00 +16°C° 0 mm 1 mps 755 mmHg 83%
    23:00 +15°C° 0 mm 1 mps 754 mmHg 83%

    Tomorrow, 3 June, Wednesday

    Time Temperature Precipitation Wind Pressure Humidity
    00:00 +15°C° 0 mm 1 mps 754 mmHg 83%
    01:00 +14°C° 0 mm 1 mps 753 mmHg 82%
    02:00 +14°C° 0 mm 1 mps 752 mmHg 81%
    03:00 +13°C° 0 mm 1 mps 752 mmHg 80%
    04:00 +14°C° 0 mm 1 mps 751 mmHg 81%
    05:00 +14°C° 0 mm 1 mps 751 mmHg 82%
    06:00 +14°C° 0 mm 2 mps 751 mmHg 83%
    07:00 +14°C° 0.6 mm 2 mps 751 mmHg 87%
    08:00 +14°C° 0.6 mm 2 mps 751 mmHg 90%
    09:00 +13°C° 0.6 mm 3 mps 750 mmHg 93%
    10:00 +13°C° 1.1 mm 3 mps 750 mmHg 94%
    11:00 +13°C° 1.1 mm 4 mps 750 mmHg 94%
    12:00 +13°C° 1.1 mm 4 mps 750 mmHg 95%
    13:00 +12°C° 1.1 mm 4 mps 750 mmHg 94%
    14:00 +12°C° 1.1 mm 4 mps 750 mmHg 94%
    15:00 +12°C° 1.1 mm 5 mps 750 mmHg 94%
    16:00 +12°C° 0.2 mm 5 mps 750 mmHg 93%
    17:00 +12°C° 0.2 mm 5 mps 750 mmHg 92%
    18:00 +12°C° 0.2 mm 5 mps 750 mmHg 91%
    19:00 +11°C° 0 mm 4 mps 750 mmHg 92%
    20:00 +11°C° 0 mm 4 mps 750 mmHg 92%
    21:00 +10°C° 0 mm 3 mps 751 mmHg 93%
    22:00 +9°C° 0 mm 3 mps 750 mmHg 93%
    23:00 +9°C° 0 mm 3 mps 750 mmHg 94%

    Day after tomorrow, 4 June, Thursday

    Time Temperature Precipitation Wind Pressure Humidity
    00:00 +8°C° 0 mm 2 mps 750 mmHg 94%
    01:00 +8°C° 0 mm 2 mps 750 mmHg 95%
    02:00 +8°C° 0 mm 2 mps 749 mmHg 95%
    03:00 +7°C° 0 mm 2 mps 749 mmHg 96%
    04:00 +8°C° 0.1 mm 3 mps 749 mmHg 95%
    05:00 +9°C° 0.1 mm 3 mps 749 mmHg 95%
    06:00 +10°C° 0.1 mm 3 mps 749 mmHg 95%
    07:00 +11°C° 0.1 mm 3 mps 749 mmHg 89%
    08:00 +12°C° 0.1 mm 3 mps 749 mmHg 84%
    09:00 +13°C° 0.1 mm 3 mps 749 mmHg 79%
    10:00 +13°C° 0.2 mm 3 mps 748 mmHg 77%
    11:00 +14°C° 0.2 mm 3 mps 748 mmHg 75%
    12:00 +14°C° 0.2 mm 3 mps 748 mmHg 74%
    13:00 +14°C° 0.3 mm 3 mps 748 mmHg 74%
    14:00 +14°C° 0.3 mm 4 mps 747 mmHg 74%
    15:00 +14°C° 0.3 mm 4 mps 747 mmHg 74%
    16:00 +13°C° 0.2 mm 5 mps 747 mmHg 77%
    17:00 +13°C° 0.2 mm 5 mps 746 mmHg 80%
    18:00 +12°C° 0.2 mm 5 mps 746 mmHg 83%
    19:00 +11°C° 0 mm 4 mps 746 mmHg 86%
    20:00 +10°C° 0 mm 3 mps 746 mmHg 89%
    21:00 +9°C° 0 mm 3 mps 746 mmHg 92%
    22:00 +9°C° 0 mm 2 mps 746 mmHg 93%
    23:00 +8°C° 0 mm 2 mps 746 mmHg 94%

    5 June, Friday

    Time Temperature Precipitation Wind Pressure Humidity
    00:00 +8°C° 0 mm 2 mps 745 mmHg 94%
    01:00 +8°C° 0 mm 3 mps 745 mmHg 94%
    02:00 +7°C° 0 mm 3 mps 745 mmHg 93%
    03:00 +7°C° 0 mm 3 mps 744 mmHg 92%
    04:00 +8°C° 0 mm 3 mps 744 mmHg 91%
    05:00 +7°C° 0 mm 4 mps 744 mmHg 90%
    06:00 +8°C° 0 mm 4 mps 744 mmHg 89%
    07:00 +10°C° 0 mm 4 mps 744 mmHg 83%
    08:00 +12°C° 0 mm 5 mps 744 mmHg 76%
    09:00 +13°C° 0 mm 5 mps 744 mmHg 70%
    10:00 +12°C° 0.1 mm 5 mps 744 mmHg 72%
    11:00 +12°C° 0.1 mm 5 mps 743 mmHg 75%
    12:00 +12°C° 0.1 mm 5 mps 743 mmHg 77%
    13:00 +12°C° 0.2 mm 5 mps 743 mmHg 80%
    14:00 +10°C° 0.2 mm 5 mps 743 mmHg 82%
    15:00 +10°C° 0.2 mm 5 mps 742 mmHg 85%
    16:00 +11°C° 0.2 mm 4 mps 742 mmHg 85%
    17:00 +11°C° 0.2 mm 4 mps 742 mmHg 86%
    18:00 +11°C° 0.2 mm 4 mps 742 mmHg 86%
    19:00 +10°C° 0.1 mm 4 mps 742 mmHg 88%
    20:00 +8°C° 0.1 mm 4 mps 743 mmHg 90%
    21:00 +8°C° 0.1 mm 3 mps 743 mmHg 92%
    22:00 +7°C° 0 mm 3 mps 744 mmHg 92%
    23:00 +5°C° 0 mm 3 mps 744 mmHg 91%

    6 June, Saturday

    Time Temperature Precipitation Wind Pressure Humidity
    00:00 +4°C° 0 mm 3 mps 744 mmHg 91%
    01:00 +4°C° 0 mm 3 mps 744 mmHg 90%
    02:00 +4°C° 0 mm 3 mps 745 mmHg 90%
    03:00 +3°C° 0 mm 4 mps 745 mmHg 90%
    04:00 +4°C° 0 mm 4 mps 745 mmHg 89%
    05:00 +5°C° 0 mm 4 mps 745 mmHg 88%
    06:00 +5°C° 0 mm 5 mps 746 mmHg 87%
    07:00 +7°C° 0.1 mm 5 mps 746 mmHg 80%
    08:00 +8°C° 0.1 mm 6 mps 746 mmHg 73%
    09:00 +10°C° 0.1 mm 7 mps 746 mmHg 65%
    10:00 +10°C° 0.1 mm 7 mps 746 mmHg 63%
    11:00 +10°C° 0.1 mm 7 mps 746 mmHg 61%
    12:00 +11°C° 0.1 mm 7 mps 746 mmHg 59%
    13:00 +11°C° 0.2 mm 7 mps 746 mmHg 60%
    14:00 +11°C° 0.2 mm 7 mps 746 mmHg 61%
    15:00 +11°C° 0.2 mm 7 mps 746 mmHg 62%
    16:00 +11°C° 0.2 mm 7 mps 746 mmHg 65%
    17:00 +10°C° 0.2 mm 6 mps 745 mmHg 68%
    18:00 +10°C° 0.2 mm 6 mps 745 mmHg 70%
    19:00 +9°C° 0 mm 5 mps 745 mmHg 76%
    20:00 +7°C° 0 mm 5 mps 745 mmHg 81%
    21:00 +6°C° 0 mm 4 mps 745 mmHg 86%
    22:00 +6°C° 0 mm 4 mps 745 mmHg 85%
    23:00 +5°C° 0 mm 4 mps 745 mmHg 85%

    7 June, Sunday

    Time Temperature Precipitation Wind Pressure Humidity
    00:00 +5°C° 0 mm 4 mps 745 mmHg 84%
    01:00 +5°C° 0 mm 5 mps 744 mmHg 83%
    02:00 +6°C° 0 mm 5 mps 744 mmHg 81%
    03:00 +6°C° 0 mm 5 mps 743 mmHg 80%
    04:00 +5°C° 0.3 mm 6 mps 743 mmHg 85%
    05:00 +7°C° 0.3 mm 6 mps 743 mmHg 89%
    06:00 +8°C° 0.3 mm 7 mps 743 mmHg 94%
    07:00 +9°C° 0.5 mm 7 mps 743 mmHg 91%
    08:00 +10°C° 0.5 mm 7 mps 743 mmHg 88%
    09:00 +11°C° 0.5 mm 6 mps 743 mmHg 85%
    10:00 +13°C° 0.7 mm 6 mps 743 mmHg 82%
    11:00 +14°C° 0.7 mm 7 mps 743 mmHg 80%
    12:00 +14°C° 0.7 mm 7 mps 743 mmHg 77%
    13:00 +14°C° 0.9 mm 7 mps 743 mmHg 79%
    14:00 +14°C° 0.9 mm 7 mps 743 mmHg 81%
    15:00 +14°C° 0.9 mm 7 mps 743 mmHg 83%
    16:00 +14°C° 0.9 mm 6 mps 743 mmHg 84%
    17:00 +13°C° 0.9 mm 5 mps 744 mmHg 85%
    18:00 +13°C° 0.9 mm 5 mps 744 mmHg 87%
    19:00 +12°C° 0.3 mm 4 mps 744 mmHg 88%
    20:00 +11°C° 0.3 mm 4 mps 745 mmHg 90%
    21:00 +10°C° 0.3 mm 3 mps 745 mmHg 91%
    22:00 +9°C° 0 mm 3 mps 745 mmHg 92%
    23:00 +9°C° 0 mm 3 mps 745 mmHg 93%
    Show more